Location: Petruro
(41.0333°N, 14.7833°E)
Time: 08:52:21
(UTC+00:00)

Cosmos 773 Rocket - Pass Details

Date: 20 June 2021
Orbit: 746 x 776 km, 74.1° (Epoch: 26 July)

Event Time Altitude Azimuth Distance (km) Brightness Sun altitude
Exits shadow 02:23:19 - 193° (SSW) 2,442 6.1 -10.5°
Reaches altitude 10° 02:23:39 10° 193° (SSW) 2,316 6.0 -10.4°
Maximum altitude 02:28:55 79° 107° (ESE) 793 4.1 -9.7°
Drops below altitude 10° 02:34:12 10° 22° (NNE) 2,326 7.6 -9.0°
Sets 02:36:35 0° 21° (NNE) 3,254 8.5 -8.6°
